Weather History for Lamoni, IA

Change the Weather History Date:

Thursday, December 13, 2012

  Actual Average Record
Temperature  
Mean Temperature 41 °F 27 °F  
Max Temperature 51 °F 35 °F 61 °F (1975)
Min Temperature 31 °F 19 °F -8 °F (1985)
Degree Days  
Heating Degree Days 24 38  
Month to date heating degree days 333 466  
Since 1 July heating degree days 1529 1714  
Cooling Degree Days 0 0  
Month to date cooling degree days 0 0  
Year to date cooling degree days 1312 946  
Moisture  
Dew Point 18 °F    
Average Humidity 41    
Maximum Humidity 53    
Minimum Humidity 29    
Precipitation  
Precipitation 0.00 in 0.05 in 0.75 in (1984)
Month to date precipitation 0.06 0.68  
Sea Level Pressure  
Sea Level Pressure 30.10 in    
Wind  
Wind Speed 10 mph (SSW)    
Max Wind Speed 9 mph    
Max Gust Speed 10 mph    
Visibility 10 miles    
Events      
T = Trace of Precipitation, MM = Missing Value Source: NWS Daily Summary

Daily Weather History Graph

Daily Weather History Graph

Search for Another Location

Airport:

Trip Planner

Search our weather history database for the weather conditions in past years. The results will help you decide how hot, cold, wet, or windy it might be!

Date:

Astronomy

Dec. 13, 2012 Rise Set
Actual Time 7:31 AM CST 4:48 PM CST
Civil Twilight 7:00 AM CST 5:19 PM CST
Nautical Twilight 6:25 AM CST 5:54 PM CST
Astronomical Twilight 5:52 AM CST 6:27 PM CST
Moon 7:40 AM CST (12/13) 5:32 PM CST (12/13)
Length of Visible Light 10h 19m
Length of Day
9h 17m
New Moon, 0% of the Moon is Illuminated
Dec 13
New Moon
Dec 19
First Quarter
Dec 28
Full
Jan 4
Last Quarter
Jan 11
New

Hourly Weather History & Observations

Time (CST) Temp. Windchill Dew Point Humidity Pressure Visibility Wind Dir Wind Speed Gust Speed Precip Events Conditions
12:53 AM 32.0 °F 23.6 °F 14.0 °F 48% 30.12 in 10.0 mi South 10.4 mph - N/A   Clear
1:53 AM 33.1 °F 23.4 °F 14.0 °F 46% 30.12 in 10.0 mi South 13.8 mph - N/A   Clear
2:53 AM 33.1 °F 25.5 °F 15.1 °F 48% 30.12 in 10.0 mi South 9.2 mph - N/A   Clear
3:53 AM 32.0 °F 22.5 °F 15.1 °F 50% 30.10 in 10.0 mi South 12.7 mph - N/A   Clear
4:53 AM 32.0 °F 22.1 °F 15.1 °F 50% 30.08 in 10.0 mi South 13.8 mph - N/A   Clear
5:53 AM 32.0 °F 23.0 °F 16.0 °F 52% 30.09 in 10.0 mi South 11.5 mph - N/A   Clear
6:53 AM 30.9 °F 21.2 °F 16.0 °F 54% 30.10 in 10.0 mi South 12.7 mph - N/A   Clear
7:53 AM 30.9 °F 22.2 °F 16.0 °F 54% 30.11 in 10.0 mi South 10.4 mph - N/A   Clear
8:53 AM 34.0 °F 24.6 °F 17.1 °F 50% 30.12 in 10.0 mi South 13.8 mph - N/A   Clear
9:53 AM 37.9 °F 27.9 °F 18.0 °F 45% 30.12 in 10.0 mi SSW 19.6 mph 23.0 mph N/A   Clear
10:53 AM 43.0 °F 35.7 °F 19.0 °F 38% 30.11 in 10.0 mi SSW 15.0 mph - N/A   Clear
11:53 AM 46.9 °F - 19.0 °F 33% 30.10 in 10.0 mi SW 17.3 mph - N/A   Clear
12:53 PM 48.9 °F - 19.9 °F 32% 30.08 in 10.0 mi WSW 11.5 mph 20.7 mph N/A   Clear
1:53 PM 50.0 °F - 19.9 °F 31% 30.07 in 10.0 mi SW 11.5 mph - N/A   Clear
2:53 PM 50.0 °F - 21.0 °F 32% 30.07 in 10.0 mi SSW 13.8 mph - N/A   Clear
3:53 PM 48.9 °F - 21.0 °F 33% 30.07 in 10.0 mi SSW 10.4 mph - N/A   Clear
5:53 PM 45.0 °F - 21.0 °F 39% 30.10 in 10.0 mi Calm Calm - N/A   Clear
8:53 PM 41.0 °F 38.0 °F 19.9 °F 43% 30.11 in 10.0 mi SSW 4.6 mph - N/A   Clear
9:53 PM 39.0 °F 34.8 °F 19.9 °F 46% 30.12 in 10.0 mi South 5.8 mph - N/A   Clear
10:53 PM 37.9 °F 32.7 °F 19.9 °F 48% 30.11 in 10.0 mi South 6.9 mph - N/A   Clear
11:53 PM 36.0 °F 30.3 °F 19.9 °F 52% 30.12 in 10.0 mi SSW 6.9 mph - N/A   Clear